Wind_Speed
6 8 10 13 14 16 18 20 21 21 21 22 22 22 21 19 18 17 16 15 15 15 15 16 17 19 21 23 25 27 30 31 31 31 31 30 30 30 30 30 29 30 30
6 8 11 13 15 17 19 20 21 21 22 22 23 22 21 20 19 18 16 15 15 15 15 15 16 17 18 20 22 24 27 30 31 31 32 32 31 30 30 30 30 30 30
6 8 11 13 15 17 18 19 21 22 22 23 23 23 22 22 21 19 17 16 15 14 14 14 14 15 16 18 20 22 24 27 29 30 31 31 32 31 30 31 31 31 32
6 8 10 13 15 16 18 19 21 22 23 23 23 23 23 22 21 20 18 17 15 14 14 13 13 13 14 15 17 19 21 24 26 28 29 29 30 30 31 31 32 32 32
6 8 10 12 14 16 17 19 20 22 23 23 24 24 24 23 21 20 19 18 16 14 13 12 12 12 13 13 15 17 19 20 22 25 27 28 29 29 29 30 31 33 33
5 7 9 11 13 15 17 19 20 22 23 23 24 24 24 23 22 21 20 19 17 15 14 12 11 10 11 11 12 14 17 18 20 22 24 27 28 28 28 29 30 32 33
5 7 9 11 13 15 17 18 20 21 23 23 23 24 24 23 23 22 21 20 19 17 15 13 11 10 9 9 10 12 14 16 18 20 22 24 26 28 28 29 29 31 32
5 7 9 11 13 15 16 18 19 21 23 23 24 23 23 23 23 23 22 21 20 18 17 14 12 10 8 7 8 9 11 14 16 18 20 22 24 26 27 27 29 30 31
5 7 9 11 13 14 16 18 19 21 22 23 23 23 23 23 23 23 22 21 20 19 18 15 14 11 8 6 7 7 8 10 13 16 18 21 22 24 26 27 27 29 29
5 7 9 11 12 14 16 17 19 20 21 22 23 23 23 23 23 23 23 22 21 20 18 16 14 13 10 7 6 6 7 9 10 13 15 18 20 23 24 25 26 27 29
5 7 9 11 12 14 15 17 18 19 21 21 22 23 23 23 23 23 23 22 21 20 19 17 15 13 11 8 6 6 6 7 9 10 12 15 17 20 21 23 24 26 28
5 7 9 11 12 14 15 17 18 19 20 21 22 22 22 22 23 23 23 22 21 20 19 17 15 14 12 10 8 6 6 6 7 8 10 12 15 16 18 20 22 24 26
6 7 9 10 12 13 15 16 18 19 20 20 21 21 21 22 22 22 22 22 21 20 19 18 16 14 13 11 9 8 7 6 6 6 8 10 12 14 17 19 21 21 23
7 8 9 10 12 14 15 16 17 18 19 20 20 21 21 21 21 22 21 21 21 20 19 18 16 15 14 13 11 10 8 7 6 6 7 9 10 11 14 17 19 20 21
8 8 10 11 12 14 15 16 17 18 19 19 20 20 21 21 21 21 20 20 20 20 19 18 17 16 14 13 12 11 10 8 7 5 6 7 8 10 11 14 17 18 19
9 9 10 11 13 14 15 15 16 17 18 19 19 19 20 20 20 20 20 20 20 20 19 18 17 16 15 14 13 12 11 9 8 7 6 6 7 9 11 12 14 15 17
10 10 11 12 13 14 14 15 15 16 17 18 18 19 20 20 20 19 19 19 19 19 19 18 17 16 15 14 13 13 11 10 9 8 7 7 7 8 10 11 12 14 16
11 11 12 13 13 14 14 15 15 16 17 18 18 19 19 19 19 19 19 19 19 19 18 17 16 16 15 14 13 13 12 11 10 9 9 8 7 7 9 10 11 13 15
13 13 13 13 14 14 15 15 16 16 17 18 18 19 19 19 19 19 19 19 19 18 18 17 16 15 15 14 14 13 12 12 11 10 10 9 8 8 8 9 10 11 13
15 14 14 14 15 15 15 16 16 17 17 18 18 19 19 19 19 19 19 19 18 18 18 17 16 15 15 14 14 14 13 13 12 11 11 10 9 9 9 9 10 10 12
16 16 16 16 16 16 16 16 17 17 18 18 19 19 19 19 19 19 19 18 18 18 18 17 16 15 15 14 14 14 14 13 13 12 12 11 11 10 10 10 10 10 11
18 18 18 17 17 17 17 18 18 18 18 19 20 20 20 19 19 19 19 18 18 18 18 17 17 16 15 15 14 14 14 13 13 13 12 12 12 12 11 10 10 11 12
20 20 20 19 19 19 19 19 19 19 19 20 20 21 20 20 20 20 19 19 19 18 18 18 18 17 16 16 15 15 14 14 14 14 13 13 12 12 12 12 12 11 12
22 22 22 21 21 21 21 21 20 20 21 21 21 21 21 21 20 20 20 20 20 19 19 19 19 18 17 17 16 16 15 15 15 15 14 14 14 14 14 14 14 14 13
24 24 24 24 23 23 23 23 22 22 22 22 22 22 22 22 21 21 21 21 21 21 20 20 20 19 19 18 18 18 17 16 16 16 16 16 15 16 16 16 16 15 15
27 27 26 26 26 25 25 25 24 24 24 23 23 23 23 23 23 23 23 23 23 22 22 22 21 21 21 21 20 20 20 19 19 18 18 18 18 18 18 18 18 18 18
Wind_Direction
17 18 15 13 11 10 9 8 5 3 0 358 354 351 347 343 339 334 327 317 306 297 288 279 272 265 259 253 247 241 237 236 235 234 233 234 233 233 233 233 232 232 230
26 23 18 15 13 11 10 8 7 5 3 0 358 355 353 349 345 339 332 324 315 305 295 286 278 269 261 253 247 243 238 235 235 232 232 233 232 231 231 231 231 230 229
28 25 21 17 14 12 10 10 9 7 4 2 0 359 357 354 350 345 339 331 324 316 306 293 284 274 265 256 248 244 239 236 235 233 232 233 233 231 230 230 229 230 230
29 26 22 18 15 13 11 10 9 6 4 3 3 2 1 358 356 353 348 341 334 326 317 305 291 280 269 259 250 244 241 238 237 235 234 234 233 233 232 232 231 230 229
27 25 21 18 15 13 11 10 8 6 5 5 4 4 3 2 0 358 355 350 343 335 327 318 300 284 274 263 253 245 240 239 238 235 234 234 233 233 232 232 232 231 230
26 23 18 14 12 11 9 8 7 6 5 4 4 4 3 3 2 1 359 357 353 348 339 329 315 296 281 268 256 249 243 240 239 236 234 233 233 234 233 232 231 230 230
18 16 11 9 8 7 6 5 5 6 5 5 4 4 4 4 4 3 1 360 358 356 352 346 334 318 296 276 262 253 246 243 241 238 235 233 233 232 232 232 232 231 230
9 9 6 6 5 5 4 3 3 3 4 4 5 4 4 5 5 5 4 3 3 2 360 357 352 341 322 294 273 264 253 248 243 240 237 235 235 233 231 231 233 233 232
355 1 2 2 1 1 1 1 2 2 2 3 4 5 5 6 6 6 6 5 5 5 4 3 360 356 342 316 292 281 266 255 246 242 239 236 236 236 235 234 234 233 232
340 351 355 356 357 357 357 358 360 1 2 2 2 4 5 6 6 6 7 6 6 7 6 5 4 2 358 342 316 293 279 265 252 246 242 239 238 239 237 236 236 233 232
324 338 346 349 351 353 354 356 358 359 360 0 1 3 4 5 6 6 7 8 8 8 9 9 8 7 4 356 339 319 299 276 263 254 248 243 242 241 238 236 236 235 234
311 328 339 344 347 350 352 354 356 357 358 359 0 2 3 5 6 8 9 10 9 10 10 10 9 9 8 4 357 344 325 298 275 260 251 246 244 242 237 236 235 236 236
300 319 332 339 343 347 349 351 353 355 356 358 360 1 2 4 6 7 8 10 10 11 12 12 11 10 9 7 0 352 337 319 295 275 261 253 250 246 240 238 238 238 238
292 310 323 331 337 342 345 347 349 351 353 356 358 360 1 2 4 5 7 8 9 9 11 13 13 13 11 8 3 357 348 335 310 287 274 265 256 251 244 240 240 241 241
286 302 314 323 331 337 341 344 347 350 352 354 356 357 359 360 1 2 4 6 7 7 8 10 10 9 8 7 5 2 358 355 343 316 294 278 264 256 250 245 244 242 241
282 296 307 317 326 332 337 341 344 347 350 353 354 355 356 358 359 360 2 4 4 5 5 4 5 6 6 7 5 2 358 355 352 342 323 302 278 263 254 249 246 244 243
279 291 303 312 321 326 331 336 340 344 348 350 351 352 354 355 356 357 358 360 1 1 2 2 3 3 5 5 5 5 2 355 348 341 331 318 300 280 264 256 253 249 248
275 285 296 307 315 321 326 330 335 339 342 346 347 348 350 351 353 354 354 356 357 358 359 359 359 360 360 359 359 359 360 358 351 344 339 329 315 298 280 268 263 256 254
272 281 291 300 309 315 319 324 329 333 337 340 343 345 346 347 348 350 351 352 353 355 357 356 356 356 355 355 354 353 352 350 346 341 337 332 323 311 299 282 272 265 263
270 278 286 295 302 307 312 318 323 327 331 334 338 341 343 344 344 345 347 349 352 353 354 355 354 352 352 352 350 348 347 345 342 337 332 328 321 312 304 293 284 276 271
270 277 284 290 295 301 307 312 317 321 324 328 332 335 337 339 341 341 342 344 347 349 350 349 348 347 347 347 347 345 343 342 341 337 332 328 324 318 311 299 288 280 275
271 275 280 285 290 295 301 306 311 314 318 322 326 329 331 333 334 336 337 337 339 342 344 344 343 341 339 340 340 339 338 336 336 335 333 329 325 321 317 310 299 287 279
270 274 277 281 286 290 295 300 305 308 312 317 320 322 325 327 328 330 331 332 333 334 335 337 337 337 336 334 333 332 332 331 328 326 325 323 322 319 314 310 307 300 291
270 272 275 278 282 286 290 295 299 303 307 311 314 315 318 320 322 323 325 326 327 328 328 328 329 329 329 328 328 327 327 327 326 323 320 319 315 314 313 308 306 303 298
269 271 273 276 279 282 285 289 293 297 301 305 308 310 311 313 315 317 318 319 320 321 322 322 322 321 321 321 321 321 320 320 319 318 317 315 313 311 309 308 304 300 297
267 269 271 273 276 279 282 285 288 291 295 300 303 306 307 308 310 311 313 313 314 314 315 315 315 315 315 314 313 312 311 311 311 310 309 308 306 304 302 301 300 298 294
Height
5843 5841 5839 5836 5834 5830 5827 5823 5819 5815 5811 5806 5802 5798 5794 5790 5786 5783 5780 5777 5775 5774 5772 5772 5771 5772 5773 5774 5776 5779 5783 5787 5791 5795 5799 5803 5807 5811 5815 5819 5823 5826 5830
5842 5840 5838 5836 5833 5830 5826 5822 5819 5814 5810 5806 5801 5797 5792 5788 5784 5780 5777 5774 5772 5770 5768 5767 5767 5766 5767 5768 5770 5773 5776 5780 5784 5788 5792 5796 5801 5804 5808 5812 5816 5820 5824
5841 5839 5837 5835 5832 5829 5826 5822 5818 5814 5810 5805 5801 5796 5791 5786 5782 5778 5775 5772 5769 5766 5764 5763 5762 5762 5762 5763 5764 5767 5770 5773 5777 5781 5786 5789 5793 5798 5802 5806 5810 5814 5818
5841 5839 5837 5835 5832 5829 5825 5822 5818 5814 5810 5805 5800 5796 5791 5786 5781 5777 5773 5769 5766 5763 5761 5759 5758 5757 5757 5758 5759 5761 5764 5767 5771 5775 5779 5783 5787 5791 5795 5799 5803 5807 5811
5840 5838 5836 5834 5832 5829 5825 5822 5818 5814 5810 5805 5800 5795 5790 5785 5781 5776 5772 5768 5764 5761 5758 5756 5754 5753 5753 5753 5754 5756 5759 5762 5765 5768 5772 5776 5780 5784 5788 5792 5796 5801 5805
5839 5838 5836 5834 5831 5828 5825 5822 5818 5814 5810 5805 5800 5795 5790 5785 5780 5776 5771 5767 5763 5759 5756 5753 5751 5750 5749 5750 5751 5752 5754 5757 5760 5763 5766 5770 5774 5778 5782 5785 5789 5793 5798
5839 5837 5835 5833 5831 5828 5825 5822 5818 5814 5810 5805 5800 5795 5790 5786 5781 5776 5771 5766 5762 5758 5755 5752 5749 5747 5746 5747 5747 5748 5750 5752 5755 5758 5761 5764 5768 5771 5775 5779 5782 5786 5791
5838 5836 5835 5833 5830 5827 5824 5821 5818 5814 5810 5805 5800 5796 5791 5786 5781 5776 5771 5767 5762 5758 5754 5751 5748 5746 5745 5744 5745 5746 5747 5749 5751 5753 5756 5759 5762 5765 5769 5773 5776 5780 5784
5837 5836 5834 5832 5829 5827 5824 5821 5817 5813 5809 5805 5801 5796 5791 5786 5781 5777 5772 5767 5762 5758 5754 5751 5748 5745 5744 5743 5743 5743 5744 5745 5747 5749 5751 5754 5757 5760 5763 5766 5770 5774 5777
5836 5835 5833 5831 5829 5826 5823 5820 5817 5813 5809 5805 5801 5796 5791 5787 5782 5777 5772 5767 5763 5759 5755 5751 5748 5745 5743 5742 5742 5741 5742 5742 5744 5745 5747 5750 5752 5754 5757 5760 5764 5767 5771
5835 5833 5832 5830 5827 5825 5822 5819 5816 5813 5809 5805 5801 5796 5792 5787 5782 5778 5773 5768 5763 5759 5755 5751 5748 5746 5744 5742 5741 5740 5740 5740 5741 5742 5743 5745 5747 5749 5752 5755 5758 5761 5764
5833 5832 5830 5828 5826 5824 5821 5818 5815 5812 5809 5805 5800 5796 5792 5787 5783 5778 5773 5769 5764 5760 5756 5752 5749 5746 5744 5742 5740 5740 5739 5739 5739 5740 5740 5742 5743 5745 5747 5749 5752 5755 5758
5832 5830 5829 5827 5825 5823 5820 5817 5814 5811 5808 5804 5800 5796 5792 5787 5783 5779 5774 5770 5765 5761 5757 5753 5750 5747 5745 5743 5741 5739 5738 5738 5737 5737 5738 5738 5739 5740 5742 5744 5747 5749 5752
5830 5829 5827 5825 5823 5821 5819 5816 5813 5810 5807 5803 5799 5795 5791 5787 5783 5779 5775 5771 5766 5762 5758 5755 5751 5748 5746 5743 5741 5739 5737 5736 5736 5735 5735 5736 5736 5737 5738 5740 5742 5744 5746
5827 5826 5825 5823 5822 5819 5817 5814 5812 5809 5806 5802 5798 5795 5791 5787 5783 5779 5775 5771 5767 5763 5759 5756 5752 5749 5746 5744 5741 5739 5737 5736 5735 5734 5734 5734 5734 5734 5735 5736 5738 5739 5741
5825 5824 5823 5821 5819 5817 5815 5813 5810 5807 5804 5801 5797 5794 5790 5787 5783 5779 5775 5771 5767 5764 5760 5756 5753 5750 5747 5744 5742 5740 5738 5736 5735 5733 5733 5732 5732 5732 5732 5733 5734 5735 5737
5821 5821 5820 5818 5817 5815 5813 5811 5808 5805 5803 5799 5796 5793 5789 5786 5782 5778 5775 5771 5767 5764 5760 5757 5753 5750 5747 5745 5742 5740 5738 5736 5734 5733 5732 5731 5730 5730 5730 5730 5731 5732 5733
5818 5818 5817 5815 5814 5812 5810 5808 5806 5803 5801 5798 5795 5791 5788 5785 5781 5777 5774 5770 5767 5763 5760 5756 5753 5750 5748 5745 5742 5740 5738 5736 5734 5732 5731 5729 5729 5728 5728 5728 5728 5729 5729
5815 5814 5813 5812 5811 5809 5807 5805 5803 5801 5798 5796 5793 5789 5786 5783 5779 5776 5773 5769 5766 5763 5759 5756 5753 5750 5747 5745 5742 5740 5737 5735 5733 5732 5730 5729 5728 5727 5726 5726 5726 5726 5726
5811 5810 5809 5808 5807 5806 5804 5802 5800 5798 5796 5793 5790 5787 5784 5781 5778 5774 5771 5768 5765 5761 5758 5755 5752 5749 5746 5744 5741 5739 5737 5735 5733 5731 5729 5728 5726 5725 5724 5724 5723 5723 5723
5806 5806 5805 5804 5803 5802 5800 5798 5797 5795 5792 5790 5787 5784 5781 5778 5775 5772 5769 5766 5763 5760 5757 5754 5751 5748 5745 5743 5740 5738 5736 5734 5732 5730 5728 5726 5725 5723 5722 5721 5720 5720 5719
5801 5801 5800 5799 5798 5797 5796 5794 5792 5791 5788 5786 5784 5781 5778 5775 5773 5770 5767 5764 5761 5758 5755 5752 5749 5746 5744 5741 5739 5737 5734 5732 5730 5728 5727 5725 5723 5722 5720 5719 5718 5717 5716
5795 5795 5795 5794 5793 5792 5791 5789 5788 5786 5784 5782 5779 5777 5774 5772 5769 5766 5764 5761 5758 5756 5753 5750 5747 5744 5742 5739 5737 5735 5732 5730 5728 5726 5725 5723 5721 5720 5718 5717 5715 5714 5713
5789 5789 5788 5788 5787 5786 5785 5784 5782 5781 5779 5777 5775 5772 5770 5768 5765 5763 5760 5757 5755 5752 5749 5747 5744 5741 5739 5736 5734 5732 5730 5728 5726 5724 5722 5720 5719 5717 5715 5714 5712 5711 5710
5782 5782 5781 5781 5780 5780 5779 5778 5776 5775 5773 5771 5769 5767 5765 5763 5760 5758 5755 5753 5750 5748 5745 5743 5740 5738 5735 5733 5731 5728 5726 5724 5722 5720 5718 5717 5715 5713 5712 5710 5708 5707 5706
5774 5774 5774 5773 5773 5772 5772 5771 5769 5768 5767 5765 5763 5761 5759 5757 5755 5752 5750 5748 5745 5743 5740 5738 5736 5733 5731 5728 5726 5724 5722 5720 5718 5716 5714 5712 5710 5709 5707 5705 5704 5702 5701